Location: ??????
(55.2000°N, 38.3000°E)
Time: 17:47:22
(UTC+00:00)

Cosmos 2292 Rocket - Pass Details

Date: 15 November 2025
Orbit: 369 x 1243 km, 83.0° (Epoch: 14 December)

Event Time Altitude Azimuth Distance (km) Brightness Sun altitude
Exits shadow 02:36:50 13° 212° (SSW) 2,116 6.0 -20.0°
Maximum altitude 02:41:30 56° 289° (WNW) 1,075 4.4 -19.3°
Drops below altitude 10° 02:48:07 10° 7° (N) 2,916 7.0 -18.4°
Sets 02:51:04 0° 12° (NNE) 3,986 7.8 -18.0°
